Time,TemperatureF,DewpointF,PressureIn,WindDirection,WindDirectionDegrees,WindSpeedMPH,WindSpeedGustMPH,Humidity,HourlyPrecipIn,Conditions,Clouds,dailyrainin,SoftwareType,DateUTC
2013-11-27 00:05:00,44.0,43.7,29.67,North,360,0.0,0.0,99,0.00,,,0.00,Wunderground v.1.15,2013-11-27 05:05:00,
2013-11-27 00:10:00,44.0,43.7,29.67,North,360,0.0,0.0,99,0.00,,,0.00,Wunderground v.1.15,2013-11-27 05:10:00,
2013-11-27 00:15:00,44.0,43.7,29.67,North,360,0.0,0.0,99,0.00,,,0.00,Wunderground v.1.15,2013-11-27 05:15:00,
2013-11-27 00:20:00,43.9,43.6,29.66,North,360,0.0,0.0,99,0.00,,,0.00,Wunderground v.1.15,2013-11-27 05:20:00,
2013-11-27 00:25:00,44.0,43.7,29.66,North,360,0.0,0.0,99,0.00,,,0.00,Wunderground v.1.15,2013-11-27 05:25:00,
2013-11-27 00:34:00,43.9,43.6,29.65,North,360,0.0,0.0,99,0.00,,,0.01,Wunderground v.1.15,2013-11-27 05:34:00,
2013-11-27 00:39:00,43.8,43.5,29.65,North,360,0.0,0.0,99,0.00,,,0.01,Wunderground v.1.15,2013-11-27 05:39:00,
2013-11-27 00:45:00,43.8,43.5,29.65,North,360,0.0,0.0,99,0.00,,,0.01,Wunderground v.1.15,2013-11-27 05:45:00,
2013-11-27 00:50:00,43.7,43.4,29.64,NNW,334,0.0,0.0,99,0.00,,,0.01,Wunderground v.1.15,2013-11-27 05:50:00,
2013-11-27 01:00:00,43.5,43.2,29.64,NNW,332,0.0,0.0,99,0.00,,,0.01,Wunderground v.1.15,2013-11-27 06:00:00,
2013-11-27 01:09:00,43.2,42.9,29.64,NNW,334,0.0,0.0,99,0.00,,,0.01,Wunderground v.1.15,2013-11-27 06:09:00,
2013-11-27 01:15:00,43.1,42.8,29.64,NNW,337,0.0,0.0,99,0.00,,,0.01,Wunderground v.1.15,2013-11-27 06:15:00,
2013-11-27 01:20:00,42.9,42.4,29.64,NNW,337,0.0,0.0,98,0.00,,,0.01,Wunderground v.1.15,2013-11-27 06:20:00,
2013-11-27 01:30:00,42.7,42.2,29.64,NNW,338,0.0,0.0,98,0.00,,,0.01,Wunderground v.1.15,2013-11-27 06:30:00,
2013-11-27 01:40:00,42.3,41.8,29.65,NNW,338,0.0,0.0,98,0.00,,,0.01,Wunderground v.1.15,2013-11-27 06:40:00,
2013-11-27 01:50:00,41.8,41.3,29.64,NNW,338,0.0,0.0,98,0.00,,,0.01,Wunderground v.1.15,2013-11-27 06:50:00,
2013-11-27 02:00:00,41.6,41.1,29.64,NNW,338,0.0,0.0,98,0.00,,,0.01,Wunderground v.1.15,2013-11-27 07:00:00,
2013-11-27 02:10:00,41.3,40.5,29.66,NNW,338,0.0,0.0,97,0.00,,,0.01,Wunderground v.1.15,2013-11-27 07:10:00,
2013-11-27 02:20:00,41.0,40.2,29.66,NNW,338,0.0,0.0,97,0.00,,,0.01,Wunderground v.1.15,2013-11-27 07:20:00,
2013-11-27 02:30:00,40.7,39.9,29.66,NNW,338,0.0,0.0,97,0.00,,,0.02,Wunderground v.1.15,2013-11-27 07:30:00,
2013-11-27 02:40:00,40.5,39.7,29.66,NNW,335,0.0,1.0,97,0.00,,,0.02,Wunderground v.1.15,2013-11-27 07:40:00,
2013-11-27 02:50:00,40.2,39.4,29.66,NNE,12,0.0,0.0,97,0.00,,,0.02,Wunderground v.1.15,2013-11-27 07:50:00,
2013-11-27 03:00:00,40.0,39.2,29.66,North,5,0.0,0.0,97,0.00,,,0.02,Wunderground v.1.15,2013-11-27 08:00:00,
2013-11-27 03:05:00,39.8,39.0,29.66,North,355,0.0,0.0,97,0.00,,,0.03,Wunderground v.1.15,2013-11-27 08:05:00,
2013-11-27 03:10:00,39.7,38.9,29.66,North,349,0.0,0.0,97,0.00,,,0.03,Wunderground v.1.15,2013-11-27 08:10:00,
2013-11-27 03:20:00,39.5,38.7,29.66,North,355,0.0,0.0,97,0.00,,,0.03,Wunderground v.1.15,2013-11-27 08:20:00,
2013-11-27 03:30:00,39.3,38.5,29.66,NNW,348,0.0,0.0,97,0.00,,,0.03,Wunderground v.1.15,2013-11-27 08:30:00,
2013-11-27 03:35:00,39.2,38.4,29.67,NNW,348,0.0,0.0,97,0.00,,,0.03,Wunderground v.1.15,2013-11-27 08:35:00,
2013-11-27 03:40:00,39.1,38.3,29.67,NNW,348,0.0,0.0,97,0.00,,,0.03,Wunderground v.1.15,2013-11-27 08:40:00,
2013-11-27 03:50:00,38.9,38.1,29.66,North,355,0.0,0.0,97,0.00,,,0.03,Wunderground v.1.15,2013-11-27 08:50:00,
2013-11-27 04:00:00,38.8,37.8,29.66,NNW,340,0.0,1.0,96,0.00,,,0.03,Wunderground v.1.15,2013-11-27 09:00:00,
2013-11-27 04:09:00,38.6,37.3,29.67,NNW,346,1.0,1.0,95,0.00,,,0.03,Wunderground v.1.15,2013-11-27 09:09:00,
2013-11-27 04:15:00,38.5,37.2,29.67,NNW,348,0.0,1.0,95,0.00,,,0.03,Wunderground v.1.15,2013-11-27 09:15:00,
2013-11-27 04:20:00,38.3,37.0,29.68,NNW,340,0.0,4.0,95,0.00,,,0.03,Wunderground v.1.15,2013-11-27 09:20:00,
2013-11-27 04:30:00,37.8,36.8,29.68,North,5,1.0,1.0,96,0.00,,,0.04,Wunderground v.1.15,2013-11-27 09:30:00,
2013-11-27 04:40:00,37.4,36.4,29.67,North,360,0.0,0.0,96,0.19,,,0.07,Wunderground v.1.15,2013-11-27 09:40:00,
2013-11-27 04:45:00,37.3,36.3,29.67,ENE,71,1.0,1.0,96,0.10,,,0.08,Wunderground v.1.15,2013-11-27 09:45:00,
2013-11-27 04:50:00,37.2,36.4,29.68,NNW,327,1.0,1.0,97,0.09,,,0.08,Wunderground v.1.15,2013-11-27 09:50:00,
2013-11-27 05:00:00,36.9,35.9,29.68,NNE,19,0.0,0.0,96,0.05,,,0.09,Wunderground v.1.15,2013-11-27 10:00:00,
2013-11-27 05:10:00,36.7,35.4,29.69,NNE,30,1.0,1.0,95,0.04,,,0.09,Wunderground v.1.15,2013-11-27 10:10:00,
2013-11-27 05:19:00,36.4,35.1,29.70,North,350,1.0,2.0,95,0.00,,,0.09,Wunderground v.1.15,2013-11-27 10:19:00,
2013-11-27 05:25:00,36.3,35.0,29.70,North,349,1.0,2.0,95,0.00,,,0.09,Wunderground v.1.15,2013-11-27 10:25:00,
2013-11-27 05:30:00,36.2,34.6,29.70,NNW,334,1.0,2.0,94,0.00,,,0.09,Wunderground v.1.15,2013-11-27 10:30:00,
2013-11-27 05:40:00,35.9,34.6,29.71,NE,42,1.0,1.0,95,0.00,,,0.09,Wunderground v.1.15,2013-11-27 10:40:00,
2013-11-27 05:50:00,35.7,34.1,29.71,North,5,2.0,2.0,94,0.00,,,0.09,Wunderground v.1.15,2013-11-27 10:50:00,
2013-11-27 05:55:00,35.6,34.0,29.71,North,9,1.0,2.0,94,0.00,,,0.09,Wunderground v.1.15,2013-11-27 10:55:00,
2013-11-27 06:00:00,35.5,33.9,29.71,NNW,344,1.0,2.0,94,0.00,,,0.09,Wunderground v.1.15,2013-11-27 11:00:00,
2013-11-27 06:10:00,35.4,33.8,29.73,SSE,150,1.0,1.0,94,0.00,,,0.10,Wunderground v.1.15,2013-11-27 11:10:00,
2013-11-27 06:20:00,35.1,33.3,29.74,North,5,1.0,1.0,93,0.00,,,0.10,Wunderground v.1.15,2013-11-27 11:20:00,
2013-11-27 06:29:00,35.0,33.2,29.74,North,5,1.0,1.0,93,0.00,,,0.10,Wunderground v.1.15,2013-11-27 11:29:00,
2013-11-27 06:35:00,35.0,32.9,29.75,NNW,342,1.0,2.0,92,0.00,,,0.10,Wunderground v.1.15,2013-11-27 11:35:00,
2013-11-27 06:40:00,35.0,32.9,29.75,NNE,20,2.0,2.0,92,0.00,,,0.10,Wunderground v.1.15,2013-11-27 11:40:00,
2013-11-27 06:50:00,34.9,32.8,29.76,NNE,19,1.0,1.0,92,0.00,,,0.10,Wunderground v.1.15,2013-11-27 11:50:00,
2013-11-27 07:00:00,34.9,32.5,29.76,NNW,344,1.0,1.0,91,0.00,,,0.10,Wunderground v.1.15,2013-11-27 12:00:00,
2013-11-27 07:09:00,34.6,32.5,29.77,North,355,1.0,1.0,92,0.00,,,0.10,Wunderground v.1.15,2013-11-27 12:09:00,
2013-11-27 07:15:00,34.6,32.2,29.77,NNE,15,1.0,4.0,91,0.00,,,0.10,Wunderground v.1.15,2013-11-27 12:15:00,
2013-11-27 07:20:00,34.7,32.1,29.78,NNW,327,1.0,1.0,90,0.00,,,0.10,Wunderground v.1.15,2013-11-27 12:20:00,
2013-11-27 07:30:00,34.6,32.2,29.78,NNE,30,1.0,1.0,91,0.00,,,0.10,Wunderground v.1.15,2013-11-27 12:30:00,
2013-11-27 07:39:00,34.5,31.9,29.80,NNE,26,1.0,1.0,90,0.00,,,0.10,Wunderground v.1.15,2013-11-27 12:39:00,
2013-11-27 07:45:00,34.6,32.0,29.80,NNE,29,1.0,1.0,90,0.00,,,0.10,Wunderground v.1.15,2013-11-27 12:45:00,
2013-11-27 07:55:00,34.5,31.6,29.81,NNE,15,1.0,4.0,89,0.00,,,0.10,Wunderground v.1.15,2013-11-27 12:55:00,
2013-11-27 08:00:00,34.4,31.8,29.81,North,5,2.0,2.0,90,0.00,,,0.10,Wunderground v.1.15,2013-11-27 13:00:00,
2013-11-27 08:10:00,34.5,31.3,29.82,North,360,1.0,1.0,88,0.00,,,0.10,Wunderground v.1.15,2013-11-27 13:10:00,
2013-11-27 08:19:00,34.5,31.3,29.83,North,355,1.0,3.0,88,0.00,,,0.10,Wunderground v.1.15,2013-11-27 13:19:00,
2013-11-27 08:25:00,34.6,31.4,29.83,North,349,1.0,3.0,88,0.00,,,0.10,Wunderground v.1.15,2013-11-27 13:25:00,
2013-11-27 08:35:00,34.5,31.3,29.84,North,5,1.0,3.0,88,0.00,,,0.10,Wunderground v.1.15,2013-11-27 13:35:00,
2013-11-27 08:40:00,34.4,30.6,29.84,NNW,338,2.0,2.0,86,0.00,,,0.10,Wunderground v.1.15,2013-11-27 13:40:00,
2013-11-27 08:49:00,34.4,30.9,29.86,NNW,346,2.0,2.0,87,0.00,,,0.10,Wunderground v.1.15,2013-11-27 13:49:00,
2013-11-27 08:55:00,34.4,30.6,29.86,NNE,15,2.0,2.0,86,0.00,,,0.10,Wunderground v.1.15,2013-11-27 13:55:00,
2013-11-27 09:00:00,34.5,31.0,29.86,NNE,16,1.0,1.0,87,0.00,,,0.10,Wunderground v.1.15,2013-11-27 14:00:00,
2013-11-27 09:10:00,34.5,31.0,29.86,NNW,348,2.0,2.0,87,0.00,,,0.10,Wunderground v.1.15,2013-11-27 14:10:00,
2013-11-27 09:20:00,34.6,30.6,29.88,North,360,2.0,3.0,85,0.00,,,0.10,Wunderground v.1.15,2013-11-27 14:20:00,
2013-11-27 09:29:00,34.7,30.9,29.88,NNE,12,1.0,1.0,86,0.00,,,0.10,Wunderground v.1.15,2013-11-27 14:29:00,
2013-11-27 09:35:00,34.8,30.8,29.89,North,355,1.0,1.0,85,0.00,,,0.10,Wunderground v.1.15,2013-11-27 14:35:00,
2013-11-27 09:40:00,34.9,30.8,29.89,NW,312,1.0,6.0,85,0.00,,,0.10,Wunderground v.1.15,2013-11-27 14:40:00,
2013-11-27 09:50:00,35.0,30.7,29.90,North,9,1.0,1.0,84,0.00,,,0.10,Wunderground v.1.15,2013-11-27 14:50:00,
2013-11-27 09:59:00,35.3,30.7,29.90,East,98,1.0,1.0,83,0.00,,,0.10,Wunderground v.1.15,2013-11-27 14:59:00,
2013-11-27 10:05:00,35.4,30.8,29.90,NE,45,1.0,1.0,83,0.00,,,0.10,Wunderground v.1.15,2013-11-27 15:05:00,
2013-11-27 10:10:00,35.5,30.2,29.90,NNW,348,2.0,3.0,81,0.00,,,0.10,Wunderground v.1.15,2013-11-27 15:10:00,
2013-11-27 10:20:00,35.6,30.3,29.91,North,360,1.0,1.0,81,0.00,,,0.10,Wunderground v.1.15,2013-11-27 15:20:00,
2013-11-27 10:30:00,35.7,29.8,29.91,NNW,346,1.0,1.0,79,0.00,,,0.10,Wunderground v.1.15,2013-11-27 15:30:00,
2013-11-27 10:39:00,35.8,29.6,29.92,West,277,2.0,2.0,78,0.00,,,0.10,Wunderground v.1.15,2013-11-27 15:39:00,
2013-11-27 10:45:00,35.9,29.4,29.92,North,351,2.0,2.0,77,0.00,,,0.10,Wunderground v.1.15,2013-11-27 15:45:00,
2013-11-27 10:50:00,36.1,28.6,29.92,North,355,2.0,3.0,74,0.00,,,0.10,Wunderground v.1.15,2013-11-27 15:50:00,
2013-11-27 11:00:00,36.7,28.5,29.92,NNW,347,2.0,3.0,72,0.00,,,0.10,Wunderground v.1.15,2013-11-27 16:00:00,
2013-11-27 11:09:00,37.5,29.3,29.92,North,360,2.0,2.0,72,0.00,,,0.10,Wunderground v.1.15,2013-11-27 16:09:00,
2013-11-27 11:15:00,37.8,29.9,29.92,NNW,329,2.0,2.0,73,0.00,,,0.10,Wunderground v.1.15,2013-11-27 16:15:00,
2013-11-27 11:20:00,37.8,29.9,29.92,NNW,334,2.0,3.0,73,0.00,,,0.10,Wunderground v.1.15,2013-11-27 16:20:00,
2013-11-27 11:30:00,37.4,29.9,29.92,NE,38,1.0,1.0,74,0.00,,,0.10,Wunderground v.1.15,2013-11-27 16:30:00,
2013-11-27 11:40:00,37.0,29.8,29.93,North,350,2.0,2.0,75,0.00,,,0.10,Wunderground v.1.15,2013-11-27 16:40:00,
2013-11-27 11:50:00,37.4,29.2,29.93,North,355,2.0,2.0,72,0.00,,,0.10,Wunderground v.1.15,2013-11-27 16:50:00,
2013-11-27 12:00:00,38.1,27.7,29.93,NNE,20,3.0,3.0,66,0.00,,,0.10,Wunderground v.1.15,2013-11-27 17:00:00,
2013-11-27 12:10:00,37.4,29.2,29.93,North,349,2.0,5.0,72,0.00,,,0.10,Wunderground v.1.15,2013-11-27 17:10:00,
2013-11-27 12:19:00,36.9,29.4,29.94,North,9,2.0,2.0,74,0.00,,,0.10,Wunderground v.1.15,2013-11-27 17:19:00,
2013-11-27 12:25:00,36.7,29.2,29.94,NNE,29,2.0,4.0,74,0.00,,,0.10,Wunderground v.1.15,2013-11-27 17:25:00,
2013-11-27 12:35:00,36.6,29.4,29.94,NNW,333,3.0,4.0,75,0.00,,,0.10,Wunderground v.1.15,2013-11-27 17:35:00,
2013-11-27 12:40:00,36.4,28.6,29.94,NE,53,2.0,2.0,73,0.00,,,0.10,Wunderground v.1.15,2013-11-27 17:40:00,
2013-11-27 12:49:00,36.0,28.8,29.95,NNE,14,2.0,2.0,75,0.00,,,0.10,Wunderground v.1.15,2013-11-27 17:49:00,
2013-11-27 12:59:00,36.2,29.0,29.95,North,10,1.0,1.0,75,0.00,,,0.10,Wunderground v.1.15,2013-11-27 17:59:00,
2013-11-27 13:05:00,36.2,29.0,29.96,NNE,32,1.0,1.0,75,0.00,,,0.10,Wunderground v.1.15,2013-11-27 18:05:00,
2013-11-27 13:15:00,36.1,27.9,29.96,NNE,24,2.0,3.0,72,0.00,,,0.10,Wunderground v.1.15,2013-11-27 18:15:00,
2013-11-27 13:20:00,36.3,27.8,29.97,North,360,2.0,2.0,71,0.00,,,0.10,Wunderground v.1.15,2013-11-27 18:20:00,
2013-11-27 13:29:00,36.7,29.5,29.97,NE,34,1.0,5.0,75,0.00,,,0.10,Wunderground v.1.15,2013-11-27 18:29:00,
2013-11-27 13:35:00,36.5,29.7,29.98,NNW,346,1.0,5.0,76,0.00,,,0.10,Wunderground v.1.15,2013-11-27 18:35:00,
2013-11-27 13:40:00,36.4,28.9,29.98,North,355,2.0,3.0,74,0.00,,,0.10,Wunderground v.1.15,2013-11-27 18:40:00,
2013-11-27 13:50:00,36.4,28.6,29.98,NE,34,2.0,2.0,73,0.00,,,0.10,Wunderground v.1.15,2013-11-27 18:50:00,
2013-11-27 13:59:00,35.4,27.3,29.98,North,360,1.0,1.0,72,0.00,,,0.10,Wunderground v.1.15,2013-11-27 18:59:00,
2013-11-27 14:09:00,35.2,27.4,30.00,NNW,337,2.0,2.0,73,0.00,,,0.10,Wunderground v.1.15,2013-11-27 19:09:00,
2013-11-27 14:15:00,35.2,27.1,30.00,North,9,1.0,4.0,72,0.00,,,0.10,Wunderground v.1.15,2013-11-27 19:15:00,
2013-11-27 14:20:00,35.3,27.2,30.01,North,5,1.0,5.0,72,0.00,,,0.10,Wunderground v.1.15,2013-11-27 19:20:00,
2013-11-27 14:30:00,35.1,27.0,30.01,NNW,348,1.0,3.0,72,0.00,,,0.10,Wunderground v.1.15,2013-11-27 19:30:00,
2013-11-27 14:39:00,34.7,26.3,30.03,NNW,344,2.0,2.0,71,0.00,,,0.10,Wunderground v.1.15,2013-11-27 19:39:00,
2013-11-27 14:45:00,34.5,27.4,30.03,NNW,327,2.0,5.0,75,0.00,,,0.10,Wunderground v.1.15,2013-11-27 19:45:00,
2013-11-27 14:50:00,34.4,26.6,30.03,NNW,345,1.0,1.0,73,0.00,,,0.10,Wunderground v.1.15,2013-11-27 19:50:00,
2013-11-27 15:00:00,34.5,26.7,30.03,North,355,0.0,2.0,73,0.00,,,0.10,Wunderground v.1.15,2013-11-27 20:00:00,
2013-11-27 15:09:00,34.5,27.1,30.04,North,5,1.0,1.0,74,0.00,,,0.10,Wunderground v.1.15,2013-11-27 20:09:00,
2013-11-27 15:19:00,34.3,25.5,30.05,North,360,1.0,2.0,70,0.00,,,0.10,Wunderground v.1.15,2013-11-27 20:19:00,
2013-11-27 15:25:00,34.1,25.0,30.05,North,349,2.0,2.0,69,0.00,,,0.10,Wunderground v.1.15,2013-11-27 20:25:00,
2013-11-27 15:30:00,34.1,25.3,30.05,North,360,1.0,2.0,70,0.00,,,0.10,Wunderground v.1.15,2013-11-27 20:30:00,
2013-11-27 15:40:00,33.9,25.1,30.06,ESE,116,1.0,1.0,70,0.00,,,0.10,Wunderground v.1.15,2013-11-27 20:40:00,
2013-11-27 15:49:00,33.7,25.0,30.07,North,360,2.0,2.0,70,0.00,,,0.10,Wunderground v.1.15,2013-11-27 20:49:00,
2013-11-27 15:55:00,33.5,24.8,30.07,NNW,344,2.0,3.0,70,0.00,,,0.10,Wunderground v.1.15,2013-11-27 20:55:00,
2013-11-27 16:00:00,33.4,24.7,30.07,NE,51,1.0,1.0,70,0.00,,,0.10,Wunderground v.1.15,2013-11-27 21:00:00,
2013-11-27 16:10:00,33.2,24.5,30.08,North,355,1.0,1.0,70,0.00,,,0.10,Wunderground v.1.15,2013-11-27 21:10:00,
2013-11-27 16:20:00,33.0,24.3,30.10,North,360,1.0,1.0,70,0.00,,,0.10,Wunderground v.1.15,2013-11-27 21:20:00,
2013-11-27 16:30:00,32.6,23.6,30.10,NNW,336,1.0,1.0,69,0.00,,,0.10,Wunderground v.1.15,2013-11-27 21:30:00,
2013-11-27 16:40:00,32.5,23.8,30.10,NNW,348,1.0,3.0,70,0.00,,,0.10,Wunderground v.1.15,2013-11-27 21:40:00,
2013-11-27 16:50:00,32.3,23.3,30.11,East,100,1.0,1.0,69,0.00,,,0.10,Wunderground v.1.15,2013-11-27 21:50:00,
2013-11-27 16:59:00,31.9,23.6,30.11,North,5,1.0,1.0,71,0.00,,,0.10,Wunderground v.1.15,2013-11-27 21:59:00,
2013-11-27 17:05:00,31.8,23.1,30.12,NNW,342,1.0,1.0,70,0.00,,,0.10,Wunderground v.1.15,2013-11-27 22:05:00,
2013-11-27 17:10:00,31.7,23.0,30.12,NNE,12,1.0,1.0,70,0.00,,,0.10,Wunderground v.1.15,2013-11-27 22:10:00,
2013-11-27 17:20:00,31.5,22.8,30.13,NNE,26,1.0,4.0,70,0.00,,,0.10,Wunderground v.1.15,2013-11-27 22:20:00,
2013-11-27 17:30:00,31.2,22.5,30.13,NNE,12,1.0,1.0,70,0.00,,,0.10,Wunderground v.1.15,2013-11-27 22:30:00,
2013-11-27 17:39:00,30.8,22.2,30.14,North,355,1.0,1.0,70,0.00,,,0.10,Wunderground v.1.15,2013-11-27 22:39:00,
2013-11-27 17:45:00,30.8,22.5,30.14,NNW,341,1.0,1.0,71,0.00,,,0.10,Wunderground v.1.15,2013-11-27 22:45:00,
2013-11-27 17:50:00,30.6,22.0,30.15,North,350,0.0,0.0,70,0.00,,,0.10,Wunderground v.1.15,2013-11-27 22:50:00,
2013-11-27 18:00:00,30.4,22.1,30.15,North,355,0.0,2.0,71,0.00,,,0.10,Wunderground v.1.15,2013-11-27 23:00:00,
2013-11-27 18:09:00,30.1,21.8,30.15,North,5,0.0,0.0,71,0.00,,,0.10,Wunderground v.1.15,2013-11-27 23:09:00,
2013-11-27 18:15:00,30.0,21.7,30.15,North,355,0.0,0.0,71,0.00,,,0.10,Wunderground v.1.15,2013-11-27 23:15:00,
2013-11-27 18:25:00,29.7,22.1,30.16,North,355,0.0,1.0,73,0.00,,,0.10,Wunderground v.1.15,2013-11-27 23:25:00,
2013-11-27 18:30:00,29.7,21.8,30.16,North,355,0.0,0.0,72,0.00,,,0.10,Wunderground v.1.15,2013-11-27 23:30:00,
2013-11-27 18:40:00,29.8,21.9,30.17,North,360,0.0,0.0,72,0.00,,,0.10,Wunderground v.1.15,2013-11-27 23:40:00,
2013-11-27 18:49:00,29.8,21.2,30.18,NNW,348,0.0,4.0,70,0.00,,,0.10,Wunderground v.1.15,2013-11-27 23:49:00,
2013-11-27 18:55:00,29.8,20.9,30.18,North,360,1.0,4.0,69,0.00,,,0.10,Wunderground v.1.15,2013-11-27 23:55:00,
2013-11-27 19:00:00,29.7,20.8,30.18,North,360,1.0,4.0,69,0.00,,,0.10,Wunderground v.1.15,2013-11-28 00:00:00,
2013-11-27 19:10:00,29.5,20.9,30.18,NNW,347,1.0,1.0,70,0.00,,,0.10,Wunderground v.1.15,2013-11-28 00:10:00,
2013-11-27 19:20:00,29.4,21.2,30.19,NNW,342,1.0,1.0,71,0.00,,,0.10,Wunderground v.1.15,2013-11-28 00:20:00,
2013-11-27 19:29:00,29.2,20.6,30.19,NE,34,0.0,0.0,70,0.00,,,0.10,Wunderground v.1.15,2013-11-28 00:29:00,
2013-11-27 19:35:00,29.1,20.5,30.20,NE,34,0.0,0.0,70,0.00,,,0.10,Wunderground v.1.15,2013-11-28 00:35:00,
2013-11-27 19:40:00,29.0,20.8,30.20,NE,46,0.0,0.0,71,0.00,,,0.10,Wunderground v.1.15,2013-11-28 00:40:00,
2013-11-27 19:50:00,28.9,21.0,30.20,NNW,333,0.0,0.0,72,0.00,,,0.10,Wunderground v.1.15,2013-11-28 00:50:00,
2013-11-27 19:59:00,28.7,20.8,30.20,NNW,333,0.0,0.0,72,0.00,,,0.10,Wunderground v.1.15,2013-11-28 00:59:00,
2013-11-27 20:05:00,28.7,20.8,30.20,NNW,334,0.0,0.0,72,0.00,,,0.10,Wunderground v.1.15,2013-11-28 01:05:00,
2013-11-27 20:10:00,28.7,20.8,30.20,NNW,334,0.0,1.0,72,0.00,,,0.10,Wunderground v.1.15,2013-11-28 01:10:00,
2013-11-27 20:20:00,28.5,20.9,30.20,NNW,334,0.0,0.0,73,0.00,,,0.10,Wunderground v.1.15,2013-11-28 01:20:00,
2013-11-27 20:30:00,28.4,20.8,30.20,NNW,334,0.0,0.0,73,0.00,,,0.10,Wunderground v.1.15,2013-11-28 01:30:00,
2013-11-27 20:39:00,28.3,21.1,30.22,NNW,348,0.0,0.0,74,0.00,,,0.10,Wunderground v.1.15,2013-11-28 01:39:00,
2013-11-27 20:45:00,28.2,20.3,30.22,NNW,348,0.0,0.0,72,0.00,,,0.10,Wunderground v.1.15,2013-11-28 01:45:00,
2013-11-27 20:50:00,28.2,20.3,30.22,NNW,348,0.0,0.0,72,0.00,,,0.10,Wunderground v.1.15,2013-11-28 01:50:00,
2013-11-27 21:00:00,28.3,19.8,30.22,North,355,0.0,1.0,70,0.00,,,0.10,Wunderground v.1.15,2013-11-28 02:00:00,
2013-11-27 21:09:00,28.5,19.6,30.22,North,9,0.0,0.0,69,0.00,,,0.10,Wunderground v.1.15,2013-11-28 02:09:00,
2013-11-27 21:15:00,28.4,19.5,30.22,North,355,0.0,0.0,69,0.00,,,0.10,Wunderground v.1.15,2013-11-28 02:15:00,
2013-11-27 21:20:00,28.4,19.5,30.23,North,360,0.0,0.0,69,0.00,,,0.10,Wunderground v.1.15,2013-11-28 02:20:00,
2013-11-27 21:30:00,28.3,19.4,30.23,North,350,0.0,0.0,69,0.00,,,0.10,Wunderground v.1.15,2013-11-28 02:30:00,
2013-11-27 21:40:00,28.2,19.7,30.24,North,355,0.0,0.0,70,0.00,,,0.10,Wunderground v.1.15,2013-11-28 02:40:00,
2013-11-27 21:49:00,28.1,19.6,30.24,North,355,0.0,0.0,70,0.00,,,0.10,Wunderground v.1.15,2013-11-28 02:49:00,
2013-11-27 21:55:00,28.1,19.2,30.24,North,355,0.0,0.0,69,0.00,,,0.10,Wunderground v.1.15,2013-11-28 02:55:00,
2013-11-27 22:00:00,28.0,19.1,30.24,North,360,0.0,1.0,69,0.00,,,0.10,Wunderground v.1.15,2013-11-28 03:00:00,
2013-11-27 22:10:00,27.9,19.0,30.25,North,360,0.0,0.0,69,0.00,,,0.10,Wunderground v.1.15,2013-11-28 03:10:00,
2013-11-27 22:19:00,27.6,19.1,30.25,North,360,0.0,0.0,70,0.00,,,0.10,Wunderground v.1.15,2013-11-28 03:19:00,
2013-11-27 22:25:00,27.4,19.2,30.25,North,360,0.0,0.0,71,0.00,,,0.10,Wunderground v.1.15,2013-11-28 03:25:00,
2013-11-27 22:30:00,27.3,20.1,30.25,North,360,0.0,0.0,74,0.00,,,0.10,Wunderground v.1.15,2013-11-28 03:30:00,
2013-11-27 22:40:00,27.0,20.1,30.26,North,360,0.0,0.0,75,0.00,,,0.10,Wunderground v.1.15,2013-11-28 03:40:00,
2013-11-27 22:50:00,26.8,19.6,30.26,North,360,0.0,0.0,74,0.00,,,0.10,Wunderground v.1.15,2013-11-28 03:50:00,
2013-11-27 22:59:00,26.7,19.5,30.26,North,360,0.0,0.0,74,0.00,,,0.10,Wunderground v.1.15,2013-11-28 03:59:00,
2013-11-27 23:05:00,26.5,20.6,30.27,North,360,0.0,0.0,78,0.00,,,0.10,Wunderground v.1.15,2013-11-28 04:05:00,
2013-11-27 23:10:00,26.4,20.5,30.27,North,360,0.0,0.0,78,0.00,,,0.10,Wunderground v.1.15,2013-11-28 04:10:00,
2013-11-27 23:20:00,26.2,19.7,30.27,North,360,0.0,0.0,76,0.00,,,0.10,Wunderground v.1.15,2013-11-28 04:20:00,
2013-11-27 23:30:00,26.1,19.6,30.27,North,360,0.0,0.0,76,0.00,,,0.10,Wunderground v.1.15,2013-11-28 04:30:00,
2013-11-27 23:39:00,25.8,20.5,30.28,North,360,0.0,0.0,80,0.00,,,0.10,Wunderground v.1.15,2013-11-28 04:39:00,
2013-11-27 23:45:00,25.8,20.2,30.28,North,360,0.0,0.0,79,0.00,,,0.10,Wunderground v.1.15,2013-11-28 04:45:00,
2013-11-27 23:50:00,25.8,19.6,30.28,North,360,0.0,0.0,77,0.00,,,0.10,Wunderground v.1.15,2013-11-28 04:50:00,